Change the Weather History Date:

Thursday, June 19, 2014

  Actual Average (KTOL) Record (KTOL)
Temperature  
Mean Temperature 70 °F 71 °F  
Max Temperature 75 °F 82 °F 98 °F (1995)
Min Temperature 66 °F 60 °F 44 °F (1970)
Degree Days  
Heating Degree Days 0 1  
Month to date heating degree days 32  
Since 1 June heating degree days 32  
Since 1 July heating degree days 6142  
Cooling Degree Days 6 6  
Month to date cooling degree days 87  
Year to date cooling degree days 140  
Since 1 June cooling degree days 87  
Growing Degree Days 20 (Base 50)    
Moisture  
Dew Point 64 °F    
Average Humidity 82    
Maximum Humidity 94    
Minimum Humidity 65    
Precipitation  
Precipitation 0.00 in 0.12 in 3.12 in (1989)
Month to date precipitation 2.34  
Year to date precipitation 15.71  
Snow  
Snow 0.00 in 0.00 in - ()
Month to date snowfall 0.0  
Since 1 June snowfall 0.0  
Since 1 July snowfall 37.6  
Snow Depth -    
Sea Level Pressure  
Sea Level Pressure 30.09 in    
Wind  
Wind Speed 3 mph (NE)    
Max Wind Speed 10 mph    
Max Gust Speed -    
Visibility 7 miles    
Events Rain    
T = Trace of Precipitation, MM = Missing Value Source: NWS Daily Summary

Daily Weather History Graph

Daily Weather History Graph

Search for Another Location

Airport or City:

Trip Planner

Search our weather history database for the weather conditions in past years. The results will help you decide how hot, cold, wet, or windy it might be!

Date:

Astronomy

Jun. 19, 2014 Rise Set
Actual Time 5:59 AM EDT 9:12 PM EDT
Civil Twilight 5:25 AM EDT 9:46 PM EDT
Nautical Twilight 4:41 AM EDT 10:30 PM EDT
Astronomical Twilight 3:48 AM EDT 11:23 PM EDT
Moon 1:09 AM EDT (6/19) 1:35 PM EDT (6/19)
Length of Visible Light 16h 21m
Length of Day
15h 12m
Waning Gibbous, 51% of the Moon is Illuminated
Jun 19
Waning Gibbous
Jun 19
Last Quarter
Jun 27
New
Jul 5
First Quarter
Jul 12
Full

Hourly Weather History & Observations

Time (EDT) Temp. Dew Point Humidity Pressure Visibility Wind Dir Wind Speed Gust Speed Precip Events Conditions
12:15 AM 68.0 °F 64.4 °F 88% 30.00 in 5.0 mi East 4.6 mph - N/A Rain Heavy Rain
12:35 AM 68.0 °F 64.4 °F 88% 29.99 in 5.0 mi Calm Calm - N/A Rain Light Rain
12:55 AM 68.0 °F 64.4 °F 88% 30.00 in 7.0 mi Calm Calm - N/A Rain Light Rain
1:15 AM 68.0 °F 66.2 °F 94% 30.00 in 3.0 mi Calm Calm - N/A Rain Heavy Rain
1:35 AM 68.0 °F 64.4 °F 88% 29.99 in 5.0 mi South 5.8 mph - N/A Rain Rain
1:55 AM 68.0 °F 64.4 °F 88% 30.00 in 10.0 mi Calm Calm - N/A   Overcast
2:15 AM 68.0 °F 64.4 °F 88% 30.00 in 10.0 mi Calm Calm - N/A   Overcast
2:35 AM 68.0 °F 64.4 °F 88% 30.01 in 10.0 mi Calm Calm - N/A   Overcast
2:55 AM 68.0 °F 66.2 °F 94% 30.02 in 10.0 mi Calm Calm - N/A   Overcast
3:15 AM 68.0 °F 64.4 °F 88% 30.01 in 5.0 mi Calm Calm - N/A Rain Heavy Rain
3:35 AM 68.0 °F 64.4 °F 88% 30.01 in 5.0 mi Calm Calm - N/A   Overcast
3:55 AM 68.0 °F 64.4 °F 88% 30.01 in 5.0 mi Calm Calm - N/A   Overcast
4:15 AM 68.0 °F 64.4 °F 88% 30.01 in 7.0 mi NNW 3.5 mph - N/A   Overcast
4:35 AM 68.0 °F 64.4 °F 88% 30.01 in 10.0 mi Calm Calm - N/A   Overcast
4:55 AM 68.0 °F 64.4 °F 88% 30.01 in 7.0 mi Calm Calm - N/A   Overcast
5:15 AM 68.0 °F 64.4 °F 88% 30.01 in 7.0 mi NNW 3.5 mph - N/A   Overcast
5:35 AM 68.0 °F 64.4 °F 88% 30.03 in 7.0 mi Calm Calm - N/A   Mostly Cloudy
6:15 AM 68.0 °F 64.4 °F 88% 30.06 in 5.0 mi NW 4.6 mph - N/A   Overcast
6:35 AM 68.0 °F 64.4 °F 88% 30.06 in 4.0 mi NNW 3.5 mph - N/A   Overcast
6:55 AM 68.0 °F 64.4 °F 88% 30.06 in 3.0 mi NNW 5.8 mph - N/A   Overcast
7:15 AM 68.0 °F 64.4 °F 88% 30.06 in 2.5 mi North 8.1 mph - N/A   Overcast
7:35 AM 68.0 °F 64.4 °F 88% 30.07 in 2.0 mi North 4.6 mph - N/A   Overcast
7:55 AM 68.0 °F 64.4 °F 88% 30.08 in 2.5 mi North 5.8 mph - N/A   Overcast
8:15 AM 69.8 °F 64.4 °F 83% 30.09 in 3.0 mi North 6.9 mph - N/A   Overcast
8:35 AM 69.8 °F 64.4 °F 83% 30.10 in 2.5 mi NNE 6.9 mph - N/A   Overcast
8:55 AM 68.0 °F 64.4 °F 88% 30.11 in 2.5 mi North 4.6 mph - N/A   Overcast
9:15 AM 68.0 °F 64.4 °F 88% 30.11 in 3.0 mi North 5.8 mph - N/A   Overcast
9:35 AM 68.0 °F 64.4 °F 88% 30.12 in 2.5 mi NE 5.8 mph - N/A   Overcast
9:55 AM 69.8 °F 64.4 °F 83% 30.12 in 2.5 mi NNE 4.6 mph - N/A   Overcast
10:15 AM 69.8 °F 64.4 °F 83% 30.12 in 3.0 mi NNE 4.6 mph - N/A   Overcast
11:15 AM 69.8 °F 64.4 °F 83% 30.12 in 3.0 mi North 3.5 mph - N/A   Overcast
11:35 AM 69.8 °F 64.4 °F 83% 30.13 in 3.0 mi NE 3.5 mph - N/A   Overcast
11:55 AM 69.8 °F 64.4 °F 83% 30.13 in 3.0 mi NNE 4.6 mph - N/A   Haze
12:15 PM 69.8 °F 66.2 °F 88% 30.14 in 4.0 mi NE 3.5 mph - N/A   Overcast
12:35 PM 69.8 °F 64.4 °F 83% 30.15 in 5.0 mi ENE 4.6 mph - N/A   Haze
12:55 PM 71.6 °F 66.2 °F 83% 30.15 in 10.0 mi ENE 5.8 mph - N/A   Overcast
1:15 PM 69.8 °F 64.4 °F 83% 30.15 in 10.0 mi East 4.6 mph - N/A   Overcast
1:35 PM 69.8 °F 64.4 °F 83% 30.15 in 5.0 mi East 4.6 mph - N/A   Overcast
1:55 PM 69.8 °F 64.4 °F 83% 30.15 in 5.0 mi ESE 4.6 mph - N/A   Haze
2:15 PM 69.8 °F 64.4 °F 83% 30.15 in 5.0 mi East 3.5 mph - N/A   Haze
2:35 PM 71.6 °F 64.4 °F 78% 30.15 in 5.0 mi ENE 4.6 mph - N/A   Haze
2:55 PM 71.6 °F 64.4 °F 78% 30.15 in 7.0 mi ENE 4.6 mph - N/A   Overcast
3:15 PM 73.4 °F 64.4 °F 73% 30.13 in 10.0 mi East 6.9 mph - N/A   Overcast
3:35 PM 73.4 °F 64.4 °F 73% 30.14 in 10.0 mi ENE 8.1 mph - N/A   Scattered Clouds
3:55 PM 73.4 °F 64.4 °F 73% 30.13 in 10.0 mi East 9.2 mph - N/A   Scattered Clouds
4:15 PM 75.2 °F 64.4 °F 69% 30.13 in 10.0 mi East 8.1 mph - N/A   Scattered Clouds
4:35 PM 75.2 °F 64.4 °F 69% 30.13 in 10.0 mi ENE 8.1 mph - N/A   Clear
4:55 PM 75.2 °F 64.4 °F 69% 30.13 in 10.0 mi East 10.4 mph - N/A   Clear
5:15 PM 73.4 °F 64.4 °F 73% 30.13 in 10.0 mi East 8.1 mph - N/A   Clear
5:35 PM 73.4 °F 64.4 °F 73% 30.12 in 10.0 mi ENE 4.6 mph - N/A   Scattered Clouds
5:55 PM 73.4 °F 64.4 °F 73% 30.12 in 10.0 mi East 4.6 mph - N/A   Clear
6:15 PM 73.4 °F 62.6 °F 69% 30.12 in 10.0 mi East 8.1 mph - N/A   Clear
6:35 PM 73.4 °F 60.8 °F 65% 30.11 in 10.0 mi East 6.9 mph - N/A   Clear
6:55 PM 73.4 °F 60.8 °F 65% 30.10 in 10.0 mi East 8.1 mph - N/A   Clear
7:15 PM 73.4 °F 62.6 °F 69% 30.11 in 10.0 mi East 6.9 mph - N/A   Clear
7:35 PM 71.6 °F 62.6 °F 73% 30.12 in 10.0 mi ENE 4.6 mph - N/A   Clear
7:55 PM 71.6 °F 62.6 °F 73% 30.13 in 10.0 mi ENE 4.6 mph - N/A   Clear
8:15 PM 71.6 °F 62.6 °F 73% 30.13 in 10.0 mi East 4.6 mph - N/A   Clear
8:35 PM 71.6 °F 62.6 °F 73% 30.13 in 10.0 mi ENE 3.5 mph - N/A   Clear
8:55 PM 69.8 °F 62.6 °F 78% 30.13 in 10.0 mi Calm Calm - N/A   Clear
9:15 PM 69.8 °F 62.6 °F 78% 30.12 in 10.0 mi Calm Calm - N/A   Clear
9:35 PM 68.0 °F 62.6 °F 83% 30.12 in 10.0 mi Calm Calm - N/A   Clear
9:55 PM 68.0 °F 62.6 °F 83% 30.13 in 10.0 mi Calm Calm - N/A   Clear
10:15 PM 68.0 °F 62.6 °F 83% 30.13 in 10.0 mi Calm Calm - N/A   Clear
10:35 PM 68.0 °F 62.6 °F 83% 30.14 in 10.0 mi Calm Calm - N/A   Clear
10:55 PM 68.0 °F 62.6 °F 83% 30.14 in 10.0 mi Calm Calm - N/A   Clear
11:15 PM 68.0 °F 62.6 °F 83% 30.13 in 10.0 mi East 3.5 mph - N/A   Clear
11:35 PM 66.2 °F 60.8 °F 83% 30.13 in 10.0 mi Calm Calm - N/A   Clear
11:55 PM 66.2 °F 60.8 °F 83% 30.13 in 10.0 mi Calm Calm - N/A   Clear